Regional Weather Roundup
Issued by NWS

Home | Current Version | Previous Version | Text Only | Print | Product List | Glossary On
Versions: 1 2 3 4 5 6 7 8 9 10 11 12 13 14 15 16 17 18 19 20 21 22 23 24 25 26 27 28 29 30 31 32 33 34 35 36 37 38 39 40 41 42 43 44 45 46 47 48 49 50
000
ASUS43 KLSX 030607
RWRMO

WEATHER SUMMARY FOR MISSOURI
NATIONAL WEATHER SERVICE SPRINGFIELD MO
100 AM CDT WED JUN 03 2015

NOTE: "FAIR" INDICATES FEW OR NO CLOUDS BELOW 12,000 FEET WITH NO
       SIGNIFICANT WEATHER AND/OR OBSTRUCTIONS TO VISIBILITY.
       CURRENT SKY AND/OR WEATHER CONDITIONS ARE NOT AVAILABLE FOR
       CHILLICOTHE AND FARMINGTON.

MOZ001>031-035>038-043-044-053-054-030700-
...NORTHERN AND WESTERN MISSOURI...

CITY           SKY/WX    TMP DP  RH WIND       PRES   REMARKS
KANSAS CTY INT MOCLDY    66  59  78 SE14      29.95F
6HR MIN TEMP:  66; 6HR MAX TEMP:  72;

KANSAS C DTWN  MOCLDY    68  58  70 SE8       29.95F
6HR MIN TEMP:  68; 6HR MAX TEMP:  74;

LEE`S SUMMIT   MOCLDY    65  58  78 SE9       29.98S
6HR MIN TEMP:  65; 6HR MAX TEMP:  72;

ST JOSEPH      PTCLDY    66  59  78 SE9       29.94F
6HR MIN TEMP:  66; 6HR MAX TEMP:  70; 6HR PCP: TRACE;

CHILLICOTHE      N/A     64  57  78 S9        29.99S
6HR MIN TEMP:  64; 6HR MAX TEMP:  71;

KIRKSVILLE     MOCLDY    58  57  97 SE7       30.01F
6HR MIN TEMP:  57; 6HR MAX TEMP:  68;


$$
MOZ066>068-077>081-088>096-101>105-030700-
...SOUTHWEST MISSOURI...

CITY           SKY/WX    TMP DP  RH WIND       PRES   REMARKS
SPRINGFIELD    MOCLDY    66  58  75 SE13      30.00S
6HR MIN TEMP:  65; 6HR MAX TEMP:  75;

JOPLIN         CLEAR     68  64  87 SE6       29.97S
6HR MIN TEMP:  68; 6HR MAX TEMP:  79;


$$
MOZ032>034-039>042-045>050-055>058-069>072-030700-
...CENTRAL MISSOURI...

CITY           SKY/WX    TMP DP  RH WIND       PRES   REMARKS
COLUMBIA       PTCLDY    58  56  93 SE7       30.02F
6HR MIN TEMP:  57; 6HR MAX TEMP:  68;

JEFFERSON CITY PTCLDY    57  55  93 E3        30.02F
6HR MIN TEMP:  57; 6HR MAX TEMP:  68;

ROLLA          CLEAR     55  54  96 SE6       30.03S
6HR MIN TEMP:  55; 6HR MAX TEMP:  64;

SEDALIA        MOCLDY    62  56  80 SE10      30.01F
6HR MIN TEMP:  62; 6HR MAX TEMP:  71;

WHITEMAN AFB   PTCLDY    63  58  84 SE7       29.98F
WARRENSBURG    MOCLDY    63  55  77 SE9       29.98F
OSAGE BEACH    PTCLDY    57  54  88 SE5       30.02F

$$
MOZ051-052-059>065-030700-
...EAST CENTRAL MISSOURI...

CITY           SKY/WX    TMP DP  RH WIND       PRES   REMARKS
ST LOUIS INTL  PTCLDY    62  56  80 SE5       30.05F
6HR MIN TEMP:  62; 6HR MAX TEMP:  72;

SPIRIT OF STL  CLEAR     56  55  97 CALM      30.03F FOG
6HR MIN TEMP:  55; 6HR MAX TEMP:  71;

ST CHARLES     CLEAR     58  56  93 SE5       30.03F
6HR MIN TEMP:  58; 6HR MAX TEMP:  72;


$$
MOZ072>076-082>087-097>100-106>115-030700-
...SOUTH CENTRAL AND SOUTHEAST MISSOURI...

CITY           SKY/WX    TMP DP  RH WIND       PRES   REMARKS
CAPE GIRARDEAU CLOUDY    62  58  86 E3        30.04F
6HR MIN TEMP:  62; 6HR MAX TEMP:  64;

FARMINGTON     CLOUDY    61  55  82 SE6       30.08F
6HR MIN TEMP:  61; 6HR MAX TEMP:  63;

POPLAR BLUFF   CLOUDY    64  56  75 NE5       30.03F
6HR MIN TEMP:  63; 6HR MAX TEMP:  65;

WEST PLAINS    MOCLDY    57  54  89 SE5       30.06S
6HR MIN TEMP:  57; 6HR MAX TEMP:  70;


$$



USA.gov is the U.S. government's official web portal to all federal, state and local government web resources and services.